Tracking 19817 objects as of 18-Aug-2019
HD Live streaming from Space Station
objects crossing your sky now

COSMOS 2251 DEB

Track COSMOS 2251 DEB now!
10-day predictions


NORAD ID: 37312
Int'l Code: 1993-036BKC
Perigee: 755.6 km
Apogee: 782.6 km
Inclination: 74.0 °
Period: 100.1 minutes
Semi major axis: 7140 km
RCS: 0.0199 m2 (small)
Launch date: June 16, 1993
Source: Commonwealth of Independent States (former USSR) (CIS)
Launch site: PLESETSK MISSILE AND SPACE COMPLEX (PKMTR)

Note: This is SATELLITE DEBRIS
aabbcc
Your satellite tracking list
Your tracking list is empty




NASA's NSSDC Master Catalog

Two Line Element Set (TLE):
1 37312U 93036BKC 19228.43461507  .00000092  00000-0  38180-4 0  9994
2 37312  74.0347 160.7789 0018929 111.3625 248.9552 14.38961828529099
Source of the keplerian elements: AFSPC